DMSP 5D-2 F13 DEB, 40513

Orbit data source: Space-Track

DMSP 5D-2 F13 DEB, 40513 is space debris in SSO originally from a launch on Fri, 24 Mar 1995 UTC launched from the Air Force Western Test Range (AFWTR). Debris objects in space refer to the collection of defunct objects orbiting the Earth. Examples of debris include non-operational satellites, rocket bodies, and fragments generated from explosions, collisions, or faulty payload assembly.

Loading next visibility...
Identifier
40513, 1995-015CZ
Orbit
SSO
Country
Flag of USUS
Related business
Manufacturer
Unknown
Mission
Spacecraft
Bus & Motor
Unknown
Mass
Unknown
Launch date (UTC)
1995-03-24 (31 years ago)
Launch vehicle
Unknown
Launch site
Air Force Western Test Range (AFWTR)
Object type
Payload
Rocket body
Debris
Shape & HBR
Unknown shape, 0.1 m
Radar Cross Section
Small (<0.1 m²)

Expand to show TLE details & history
Last TLE update: 7 hours ago

TLE from 7 hours ago
0 DMSP 5D-2 F13 DEB
1 40513U 95015CZ  26119.49327407  .00000988  00000-0  46132-3 0  9992
2 40513  98.7623 139.7873 0005346 254.5862 105.4726 14.22648369574644
Epoch: 2026-04-29T11:50Z
TLE epoch observation values (Epoch: 2026-04-29T11:50:18.879Z)
Latitude
0.00003°
Longitude
104.75519°
Altitude
820.355 km
Speed
7.442 km/s
True Right ascension
09h 19m 08s
True Declination
0° 00' 00"
Sunlit
Object was in daylight at epoch
Visualization orbit readout
Latitude
Unknown
Longitude
Unknown
Altitude
Unknown
Speed
Unknown
Apparent Right ascension
Unknown
Apparent Declination
Unknown
Sunlit
N/A
Visualization observer readout
Local Sidereal Time
02:47:54
Azimuth
Unknown
Elevation
Unknown
Doppler factor
Unknown
Orbital elements
Apogee altitude
817.412 km
Perigee altitude
809.723 km
Semi-major axis
7,191.705 km
Eccentricity
0.00053
Inclination
98.7623°
RAAN
139.7873°
Arg. of periapsis
254.5862°
True anomaly
105.53163°
Mean anomaly
105.4726°
Eccentric anomaly
105.50212°
Mean motion
3.55873 °/min
Orbital period
101.16 mins
BSTAR
0.00046132

Documentation

Showing up to 5 results
|